Flag for Brazil Weather past 2 weeks in Belo Horizonte, Minas Gerais, Brazil

Now
63 °F

Partly cloudy.


Feels Like: 63 °F
Forecast: 58 / 81 °F
Wind: 1 mph from South

Location: Belo Horizonte Airport

Current Time: Jul 27, 2015 at 11:39:01 PM

Latest Report: Jul 27, 2015 at 11:00 PM


Visibility: N/A

Pressure: 30.18 "Hg (27.27 "Hg at 860m altitude)

Humidity: 88%

Dew point: 59 °F

Location of Belo HorizonteLocation

Historic Weather in Belo Horizonte — Graph

°F

Belo Horizonte temperature yesterday

Maximum temperature yesterday: 81 °F (at 3:00 PM)
Minimum temperature yesterday: 59 °F (at 2:00 AM)
Average temperature yesterday: 68 °F

Past Weeks' High & Low Weather Summary

 TemperatureHumidityPressure
High81 °F (Jul 13, 2:00 PM)100% (Jul 13, 3:00 AM)30.39 "Hg (Jul 13, 3:00 AM)
Low52 °F (Jul 21, 6:00 AM)32% (Jul 13, 2:00 PM)29.92 "Hg (Jul 18, 5:00 AM)
Average65 °F70%30.21 "Hg
* Reported Jul 12 10:00 PM — Jul 27 10:00 PM, Belo Horizonte, Weather by CustomWeather, © 2015

Note: Actual official high and low records may vary slightly from our data, if they occured in-between our weather recording intervals... More about our weather records

Advertising

Belo Horizonte weather history for previous 24 hours

 ConditionsComfort  
Time TempWeatherWind HumidityBarometerVisibility
10:00 PM
Mon, Jul 27
66 °FPartly cloudy.3 mph78%30.18 "HgN/A
9:00 PM63 °FPartly cloudy.1 mph88%30.18 "HgN/A
8:00 PM66 °FPartly cloudy.5 mph78%30.15 "HgN/A
7:00 PM66 °FPassing clouds.6 mph68%30.12 "HgN/A
6:00 PM63 °FThunderstorms. Passing clouds.6 mph83%30.12 "Hg5 mi
5:00 PM61 °FThunderstorms. Scattered clouds.38 mph88%30.09 "Hg1 mi
4:00 PM77 °FScattered clouds.7 mph51%30.09 "HgN/A
3:00 PM75 °FScattered clouds.7 mph57%30.09 "HgN/A
2:00 PM77 °FPartly sunny.3 mph54%30.09 "HgN/A
1:00 PM75 °FPartly sunny.5 mph57%30.12 "HgN/A
12:00 PM75 °FScattered clouds.5 mph57%30.15 "HgN/A
11:00 AM72 °FScattered clouds.5 mph69%30.18 "HgN/A
10:00 AM68 °FPassing clouds.8 mph78%30.21 "HgN/A
9:00 AM64 °FPassing clouds.2 mph94%30.21 "HgN/A
8:00 AM61 °FScattered clouds.3 mph100%30.18 "HgN/A
7:00 AM61 °FLight rain. Broken clouds.6 mph100%30.18 "Hg6 mi
6:00 AM61 °FLight rain. Partly cloudy.12 mph100%30.15 "Hg4 mi
5:00 AM59 °FRain showers. Partly cloudy.9 mph100%30.15 "Hg4 mi
4:00 AM61 °FPassing clouds.8 mph100%30.12 "HgN/A
3:00 AM61 °FPassing clouds.6 mph100%30.12 "HgN/A
2:00 AM61 °FPassing clouds.5 mph94%30.15 "HgN/A
1:00 AM61 °FLight rain. Passing clouds.13 mph94%30.15 "HgN/A
12:00 AM63 °FLight rain. Partly cloudy.10 mph94%30.18 "HgN/A
11:00 PM
Sun, Jul 26
66 °FClear.10 mph78%30.15 "Hg10 mi
Weather by CustomWeather, © 2015

See weather overviewHow to use our weather pages